Skip Page Navigation
NASA JPL Caltech
NASA Logo - Jet Propulsion Laboratory + View the NASA Portal
+ Center for Near-Earth Object Studies
JPL Home Earth Solar System Stars & Galaxies Technology
JPL Solar System Dynamics
BODIES ORBITS EPHEMERIDES TOOLS PHYSICAL DATA DISCOVERY FAQ SITE MAP
IMPORTANT: The SSD Announcement email list is now available. Major changes are coming in the near future, including possible hostname and/or URL changes. To be notified of such changes, subscribe to this email list.

Please visit this page for more details.


JPL Small-Body Database Browser
Search: [ help ]  
(2020 AG)
Classification: Apollo [NEO]          SPK-ID: 3968769
Ephemeris | Orbit Diagram | Orbital Elements | Mission Design | Physical Parameters | Close-Approach Data ]

[ show orbit diagram ]
Orbital Elements at Epoch 2458848.5 (2019-Dec-31.0) TDB
Reference: JPL 4 (heliocentric ecliptic J2000)
 Element Value Uncertainty (1-sigma)   Units 
e .3879282046420321 0.0013625  
a 1.329387647039752 0.0021738 au
q .8136806838503257 0.00048075 au
i 1.726039727319179 0.004464 deg
node 47.30667462306536 0.059882 deg
peri 336.1993714442773 0.050783 deg
M 36.40986311038925 0.1135 deg
tp 2458791.877057999804
(2019-Nov-04.37705800)
0.037628 TDB
period 559.8554177001033
1.53
1.3732
0.00376
d
yr
n .6430231602989337 0.0015772 deg/d
Q 1.845094610229179 0.0030171 au
  Orbit Determination Parameters
   # obs. used (total)      24  
   data-arc span      4 days  
   first obs. used      2019-12-30  
   last obs. used      2020-01-03  
   planetary ephem.      DE431  
   SB-pert. ephem.      SB431-N16  
   condition code      8  
   norm. resid. RMS      .6198  
   source      ORB  
   producer      Otto Matic  
   solution date      2020-Jan-19 05:17:58  

Additional Information
 Earth MOID = .0204741 au 
 Jupiter MOID = 3.60961 au 
 T_jup = 4.845 
[ show covariance matrix ]

Ephemeris | Orbit Diagram | Orbital Elements | Mission Design | Physical Parameters | Close-Approach Data ]

Physical Parameter Table
Parameter Symbol Value Units Sigma Reference Notes
absolute magnitude H 26.2   .47339 E2020A92 autocmod 2.8

[ show close-approach data ]
Ephemeris | Orbit Diagram | Orbital Elements | Mission Design | Physical Parameters | Close-Approach Data ]
ABOUT SSD CREDITS/AWARDS PRIVACY/COPYRIGHT GLOSSARY LINKS
FirstGov 2020-Feb-19 23:42 UT
(server date/time)  
NASA Home Page
Site Manager:   Ryan S. Park
Webmaster  Alan B. Chamberlin